This is the latest recevied weather packets stored in our database for station/object DM2KB-13. If no packets are shown the sender has not sent any weather packets the latest 1 day(s).
| Time | Temp. | Humidity | Pressure | Rain* | Wind** | Luminosity | Snow |
|---|---|---|---|---|---|---|---|
| 1777990510 | 11.11° C | 97% | 1008 hPa | 0 mm | 1.34 m/s, 69° | 102 W/m² | - |
| 1777990210 | 11.11° C | 97% | 1008 hPa | 0 mm | 1.34 m/s, 8° | 102 W/m² | - |
| 1777989910 | 11.11° C | 97% | 1008.1 hPa | 0 mm | 1.34 m/s, 23° | 95 W/m² | - |
| 1777989610 | 11.67° C | 97% | 1008.2 hPa | 0 mm | 1.34 m/s, 15° | 98 W/m² | - |
| 1777989309 | 11.67° C | 97% | 1008.1 hPa | 0 mm | 1.34 m/s, 31° | 98 W/m² | - |
| 1777989009 | 11.67° C | 97% | 1008.1 hPa | 0 mm | 0.89 m/s, 43° | 91 W/m² | - |
| 1777988709 | 11.67° C | 98% | 1008.1 hPa | 0 mm | 0.45 m/s, 48° | 120 W/m² | - |
| 1777988408 | 11.67° C | 98% | 1008.1 hPa | 0 mm | 0.45 m/s, 42° | 135 W/m² | - |
| 1777988108 | 11.67° C | 98% | 1008.1 hPa | 0 mm | 0.45 m/s, 31° | 127 W/m² | - |
| 1777987808 | 11.67° C | 98% | 1008.2 hPa | 0 mm | 0.45 m/s, 30° | 109 W/m² | - |
| 1777987508 | 11.67° C | 98% | 1008.2 hPa | 0 mm | 0.89 m/s, 30° | 135 W/m² | - |
| 1777987207 | 11.67° C | 98% | 1008.2 hPa | 0 mm | 0.89 m/s, 10° | 118 W/m² | - |
| 1777986907 | 11.67° C | 98% | 1008.3 hPa | 0 mm | 0.89 m/s, 355° | 114 W/m² | - |
| 1777986607 | 11.11° C | 98% | 1008.3 hPa | 0 mm | 0.89 m/s, 75° | 125 W/m² | - |
| 1777986306 | 11.11° C | 98% | 1008.4 hPa | 0 mm | 0.89 m/s, 37° | 127 W/m² | - |
| 1777986006 | 11.11° C | 98% | 1008.3 hPa | 0 mm | 0.89 m/s, 16° | 120 W/m² | - |
| 1777985706 | 11.11° C | 98% | 1008.3 hPa | 0.25 mm | 0.89 m/s, 33° | 111 W/m² | - |
| 1777985406 | 11.67° C | 98% | 1008.5 hPa | 0.25 mm | 0.89 m/s, 9° | 98 W/m² | - |
| 1777985105 | 11.67° C | 98% | 1008.4 hPa | 0.25 mm | 0.45 m/s, 45° | 88 W/m² | - |
| 1777984805 | 11.67° C | 98% | 1008.5 hPa | 0.25 mm | 0.45 m/s, 68° | 72 W/m² | - |
| 1777984505 | 11.67° C | 98% | 1008.5 hPa | 0.25 mm | 0.45 m/s, 68° | 93 W/m² | - |
| 1777984204 | 11.11° C | 98% | 1008.5 hPa | 0.25 mm | 0.89 m/s, 25° | 113 W/m² | - |
| 1777983904 | 11.11° C | 98% | 1008.5 hPa | 0.25 mm | 0.89 m/s, 45° | 111 W/m² | - |
| 1777983604 | 11.11° C | 98% | 1008.6 hPa | 0.25 mm | 0.89 m/s, 9° | 114 W/m² | - |
| 1777983304 | 11.11° C | 98% | 1008.6 hPa | 0.25 mm | 0.89 m/s, 37° | 93 W/m² | - |
* Rain latest hour (hover to see other rain measurements)
** Current wind speed in m/s (hover to see current wind gust speed)